EUTELSAT 7 WEST A

Last updated on Oct. 26, 2020, 5:52 a.m. UTC

1 37816U 11051A   20299.83918528 -.00000072  00000-0  00000-0 0  9999
2 37816   0.0993  59.3153 0008071 134.5992 135.5848  1.00271878 33232
UTC
Height (km)
Latitude
Longitude
Inclination
Orbital Period
UTC large
Height (km)
Speed (km/s)
/
Latitude / Longitude
Inclination (degrees)
Orbital Period (minutes)
Azimuth
Elevation
Range (km)
Doppler Factor
iOS Compass Heading
iOS Angle

Next 30 passes for location: Hong Kong

Rise time Rise Azimuth (degrees) Set time Set Azimuth (degrees) Duration Max altitude (degrees)

No matching passes for this satellites